Location: Ailly
(50.0793°N, 1.9944°E)
Time: 01:56:05
(UTC+00:00)

Daily predictions for brighter satellites

Satellite Brightness Start Highest point End
(mag) Time Altitude Azimuth Time Altitude Azimuth Time Altitude Azimuth
ATLAS 2AS CENTAUR R/B 4.0 03:39:34 31° NNE 03:39:34 31° NNE 03:45:07 10° E
BREEZE-M DEB (TANK) 4.5 03:45:26 76° SSE 03:45:26 76° SSE 03:50:34 10° ESE
Cosmos 2344 4.5 04:00:11 33° N 04:00:11 33° N 04:06:19 10° NE
Cosmos 1844 Rocket 4.3 04:30:42 23° N 04:30:42 23° N 04:33:04 10° NNE
Cosmos 1709 Rocket 3.9 04:29:39 79° NE 04:29:39 79° NE 04:35:31 10° N
CZ-4C R/B 3.9 04:33:29 23° N 04:33:38 23° N 04:38:58 10° NE
GEOS 3 Rocket 4.0 04:33:22 10° ESE 04:38:30 57° NE 04:39:00 55° NNE
Cosmos 1992 Rocket 4.2 04:39:20 67° E 04:39:20 67° E 04:44:05 10° SSE
Cosmos 2263 Rocket 4.4 04:53:02 12° N 04:53:02 12° N 04:53:59 10° N
Cosmos 2082 Rocket 3.4 04:54:47 21° N 04:58:06 39° NE 05:03:23 10° ESE
Meteor 1-11 Rocket 4.3 05:04:47 41° NNW 05:04:47 41° NNW 05:08:51 10° N
Cosmos 2278 Rocket 3.7 04:58:38 10° S 05:03:42 35° ESE 05:08:48 10° NE
Cosmos 1833 Rocket 2.9 05:09:13 49° SW 05:09:13 49° SW 05:14:00 10° S
ARIANE 6 FM1 Upper Stage 4.2 05:14:11 24° S 05:14:11 24° S 05:16:03 10° SSE
Cosmos 2181 Rocket 3.9 05:11:22 10° NNW 05:17:43 78° W 05:24:08 10° S
BREEZE M DEB (TANK) 2.5 05:24:16 52° SSW 05:24:17 52° SSW 05:30:05 10° ESE
Cosmos 2184 Rocket 4.2 05:20:04 10° S 05:26:14 73° E 05:32:23 10° NNE
Lacrosse 4 Rocket 4.5 05:24:23 10° SE 05:26:37 15° ESE 05:28:51 10° ENE
Cosmos 1943 Rocket 2.7 05:21:55 10° S 05:27:17 57° ESE 05:32:41 10° NE
IRS-1D 3.5 05:22:17 10° NNE 05:27:37 79° WNW 05:32:56 10° SSW
FengYun 1-2 T 4.3 05:23:35 10° N 05:28:59 52° WNW 05:32:06 24° SW
ATLAS 2AS CENTAUR R/B 2.8 05:27:00 25° NW 05:31:11 72° NE 05:37:56 10° SE
Meteor 2-10 Rocket 3.7 05:27:46 10° S 05:32:49 72° E 05:38:06 10° NNE
Okean 3 3.1 05:33:12 33° NNW 05:34:55 84° W 05:38:54 10° S
Lacrosse 5 rocket 2.3 05:40:11 28° N 05:40:22 28° N 05:43:41 10° ENE
Cosmos 1932 4.5 05:35:21 12° SW 05:41:26 83° NW 05:48:03 10° NE
ATLAS CENTAUR R/B 0.5 05:42:28 71° NNE 05:42:38 75° NE 05:45:38 10° SE
Cosmos 44 3.5 05:40:57 27° NW 05:43:57 84° NE 05:49:21 10° SE
Cosmos 1743 Rocket 3.8 05:41:53 10° S 05:46:17 72° E 05:50:42 10° NNE
Cosmos 2228 Rocket 4.5 05:43:55 10° N 05:48:02 38° ENE 05:52:06 10° SE
COSMO-SKYMED 1 2.7 05:45:18 10° S 05:49:14 44° W 05:50:06 38° WNW
Gblst 52 Del rocket 4.1 05:47:13 33° WNW 05:49:47 77° SSW 05:55:21 10° ESE
Cosmos 2074 Rocket 3.9 05:45:29 10° SSW 05:51:46 75° W 05:58:06 10° N
Helios 1A Rocket 2.3 05:50:47 10° S 05:54:06 61° WSW 05:55:14 37° NW
Timation 1 Rocket 4.5 05:51:08 23° NW 05:54:44 53° WSW 06:00:32 10° S
USA 307 2.8 05:56:47 35° NW 05:58:19 67° NNE 06:02:13 10° ESE
CZ-4 R/B 4.0 05:54:22 10° N 05:58:57 49° WNW 06:03:37 10° SW
NOSS 8 (E) 4.2 05:58:57 38° NNW 05:59:56 75° NE 06:03:14 10° SE
Cosmos 2084 Rocket 4.2 05:57:45 20° NNW 06:00:20 45° NE 06:04:24 10° ESE
IGS 5A 3.2 05:59:11 10° N 06:03:10 80° WNW 06:07:08 10° SSW
Okean 2 4.3 06:04:08 25° WSW 06:04:08 25° WSW 06:06:40 10° SSW
TIMED 4.4 05:59:43 10° SW 06:03:55 59° WNW 06:08:08 10° NNE
Dummy Sat-02 4.4 06:00:39 10° S 06:04:16 84° W 06:07:54 10° N
Nadezhda 3 Rocket 4.0 05:58:38 10° NNW 06:04:49 65° W 06:11:01 10° S
CENTAUR R/B 4.5 06:00:33 10° S 06:05:14 29° ESE 06:10:53 10° NE
Okean 3 Rocket 4.3 06:03:40 10° SW 06:07:26 29° WNW 06:11:20 10° N
Cosmos 1805 Rocket 3.8 06:05:54 10° SSW 06:10:09 46° WNW 06:14:25 10° N
SeaSat 1 3.2 06:05:38 10° NE 06:10:28 56° ESE 06:15:16 10° SSW
Cosmos 1844 Rocket 4.5 06:12:21 13° NW 06:13:12 13° NNW 06:15:58 10° N
Sich 1 3.8 06:11:51 10° SW 06:15:24 26° WNW 06:18:58 10° NNW
USA 32 3.9 06:10:49 10° SSW 06:16:02 74° W 06:21:19 10° N
Cosmos 1953 4.2 06:13:05 10° SSE 06:16:18 30° E 06:19:34 10° NNE
GEOS 3 Rocket 4.3 06:11:50 10° S 06:16:39 37° WSW 06:20:03 18° WNW
Cosmos 1500 Rocket 4.0 06:14:37 10° SW 06:18:41 38° WNW 06:22:49 10° N
Okean 1-7 2.9 06:15:45 10° N 06:19:55 87° E 06:24:04 10° S
Cosmos 2084 4.1 06:18:29 21° W 06:20:31 33° NNW 06:24:19 10° NNE
Cosmos 1269 Rocket 3.9 06:18:10 10° SSW 06:23:27 73° WNW 06:28:46 10° NNE
CZ-4C R/B 3.8 06:18:24 12° NW 06:23:43 34° NNE 06:30:41 10° E
Cosmos 1408 Rocket 4.2 06:20:29 10° SW 06:24:19 30° WNW 06:28:09 10° N
Meteor 1-24 Rocket 4.2 06:19:44 10° N 06:25:47 72° ENE 06:31:46 10° SSE
SJ 16-02 3.6 06:23:16 10° SSE 06:26:52 28° ESE 06:30:31 10° NE
Cosmos 2154 Rocket 4.2 06:23:14 10° SSW 06:29:19 48° WNW 06:35:24 10° N
Cosmos 2366 rocket 4.5 06:25:06 10° S 06:31:12 66° E 06:37:26 10° NNE
SL-08 R/B 4.3 06:27:12 10° SE 06:31:54 49° ENE 06:36:38 10° N
Cosmos 921 Rocket 3.6 06:29:46 10° SW 06:33:40 33° WNW 06:37:33 10° N
MOS 1 Rocket 3.2 06:29:24 10° NNE 06:34:01 86° E 06:38:23 10° SSW
NOSS 8 (F) 4.5 06:32:53 18° WNW 06:34:50 50° SW 06:38:09 10° SSE
SJ-12 4.1 06:33:19 10° NNE 06:37:08 68° ESE 06:40:56 10° S
BREEZE-M DEB (TANK) 2.9 06:37:15 16° W 06:38:49 45° SSW 06:41:21 10° ESE
COSMOS 2406 3.2 06:33:14 10° NNW 06:38:59 83° WSW 06:44:44 10° SSE
Cosmos 1763 Rocket 3.4 06:34:58 10° NNW 06:39:59 64° WSW 06:44:59 10° S
Cosmos 1758 3.9 06:38:33 10° SW 06:41:51 30° WNW 06:45:10 10° N
Landsat 7 3.7 06:37:21 10° NNE 06:42:02 78° WNW 06:46:40 10° SSW
Cosmos 1140 Rocket 3.5 06:37:11 10° SW 06:42:10 54° WNW 06:47:14 10° NNE
Cosmos 2082 Rocket 2.6 06:36:53 10° NW 06:42:15 44° WSW 06:47:36 10° S
Cosmos 2278 Rocket 2.4 06:42:12 10° SW 06:47:39 47° NW 06:53:07 10° NNE
ARIANE 5 R/B 2.7 06:42:30 10° NNE 06:47:41 80° ESE 06:52:44 10° SSW
Cosmos 1484 Rocket 3.5 06:45:59 10° N 06:48:47 25° WNW 06:51:37 10° WSW
SMAP 3.1 06:44:10 10° N 06:48:47 62° WNW 06:53:22 10° SSW
SL-23 DEB 3.3 06:46:08 10° WSW 06:49:16 87° NNW 06:52:54 10° ENE
Cosmos 1470 Rocket 3.7 06:45:02 10° S 06:49:20 80° E 06:53:38 10° NNE
Cosmos 2341 Rocket 4.1 06:43:19 10° S 06:49:43 87° W 06:56:10 10° N
Cosmos 220 Rocket 4.3 06:46:23 10° NNW 06:50:36 67° ENE 06:54:44 10° SSE
CZ-2D R/B 2.6 06:50:07 10° N 06:53:13 65° WNW 06:56:17 10° SSW
Timation 2 Rocket 4.2 06:50:23 10° SW 06:56:44 49° NW 07:02:51 10° NNE
Cosmos 1862 Rocket 4.2 06:53:34 10° NNW 06:57:30 34° W 07:01:23 10° SSW
Cosmos 540 Rocket 3.7 06:54:06 10° NNW 06:59:02 51° WSW 07:03:56 10° S
Gbstr 26 Del rocket 4.1 06:51:50 10° WSW 06:59:08 87° SSE 07:05:11 10° ENE
CBERS-1 4.4 06:56:16 10° N 07:01:02 41° WNW 07:05:47 10° SW
AQUARIUS 4.1 06:58:36 10° N 07:03:02 74° WNW 07:07:25 10° SSW
USA 234 3.8 06:56:35 10° ENE 07:03:08 67° SE 07:09:40 10° SW
GRACE-FO 1 4.4 06:59:56 10° S 07:03:20 68° W 07:06:48 10° N
GRACE-FO 2 4.4 07:00:23 10° S 07:03:46 67° W 07:07:14 10° N
Lacrosse 4 Rocket 1.2 07:00:01 10° SW 07:03:57 68° NW 07:07:52 10° NNE
Cosmos 2297 Rocket 4.4 07:02:24 10° N 07:05:35 15° NNE 07:08:45 10° ENE
Cosmos 304 Rocket 4.3 07:03:51 10° SSW 07:08:34 67° ESE 07:13:19 10° NNE
Cosmos 1943 Rocket 2.9 07:06:29 10° WSW 07:11:20 31° NW 07:16:12 10° NNE
Cosmos 1656 Rocket 3.8 07:06:26 10° SSW 07:12:08 89° NW 07:17:50 10° NNE
